Location: Newark
(41.6500°N, 71.4833°W)
Time: 02:34:10
(UTC+00:00)

A-11 Canister half - Pass Details

Date: 27 January 2020
Orbit: 1517 x 1683 km, 47.2° (Epoch: 19 February)

Event Time Altitude Azimuth Distance (km) Brightness Sun altitude
Rises 10:07:05 0° 297° (WNW) 4,668 - -21.7°
Reaches altitude 10° 10:10:10 10° 293° (WNW) 3,681 - -21.1°
Exits shadow 10:14:17 30° 283° (WNW) 2,477 9.5 -20.3°
Maximum altitude 10:19:08 58° 218° (SW) 1,739 9.1 -19.4°
Drops below altitude 10° 10:28:14 10° 142° (SE) 3,722 11.7 -17.7°
Sets 10:31:22 0° 139° (SE) 4,723 12.4 -17.2°
